This is the latest recevied weather packets stored in our database for station/object SR7U-1. If no packets are shown the sender has not sent any weather packets the latest 10 day(s).
| Time | Temp. | Humidity | Pressure | Rain* | Wind** | Luminosity | Snow |
|---|---|---|---|---|---|---|---|
| 1777953919 | 11.11° C | 66% | 1011.1 hPa | - | - | - | - |
| 1777953105 | 10° C | 69% | 1011.2 hPa | - | - | - | - |
| 1777952295 | 9.44° C | 70% | 1011.2 hPa | - | - | - | - |
| 1777951460 | 8.89° C | 73% | 1011.2 hPa | - | - | - | - |
| 1777950610 | 8.33° C | 74% | 1011.2 hPa | - | - | - | - |
| 1777949860 | 8.89° C | 74% | 1011.4 hPa | - | - | - | - |
| 1777948995 | 8.89° C | 73% | 1011.4 hPa | - | - | - | - |
| 1777948255 | 8.89° C | 74% | 1011.4 hPa | - | - | - | - |
| 1777947440 | 8.89° C | 74% | 1011.6 hPa | - | - | - | - |
| 1777946645 | 9.44° C | 72% | 1011.6 hPa | - | - | - | - |
| 1777945760 | 9.44° C | 74% | 1011.6 hPa | - | - | - | - |
| 1777945020 | 9.44° C | 72% | 1011.7 hPa | - | - | - | - |
| 1777944242 | 9.44° C | 74% | 1011.8 hPa | - | - | - | - |
| 1777943440 | 9.44° C | 72% | 1011.8 hPa | - | - | - | - |
| 1777942642 | 10° C | 72% | 1011.9 hPa | - | - | - | - |
| 1777941795 | 10° C | 72% | 1012 hPa | - | - | - | - |
| 1777940910 | 10.56° C | 71% | 1012 hPa | - | - | - | - |
| 1777940085 | 10.56° C | 69% | 1012.1 hPa | - | - | - | - |
| 1777939295 | 11.11° C | 68% | 1012.2 hPa | - | - | - | - |
| 1777938510 | 11.11° C | 69% | 1012.2 hPa | - | - | - | - |
| 1777937750 | 11.11° C | 68% | 1012.2 hPa | - | - | - | - |
| 1777936960 | 11.11° C | 68% | 1012.4 hPa | - | - | - | - |
| 1777936204 | 13.89° C | 57% | 1012.3 hPa | - | - | - | - |
| 1777935320 | 13.33° C | 58% | 1012.4 hPa | - | - | - | - |
| 1777934550 | 12.78° C | 61% | 1012.3 hPa | - | - | - | - |
* Rain since midnight (hover to see other rain measurements)
** Current wind speed in m/s (hover to see current wind gust speed)